Powrót do katalogu

SL-8 DEB

AktywnyLEO
NORAD 21166·DEBRIS·🇷🇺 Russia

Wystrzelony Feb 12, 1991 z Plesetsk Cosmodrome

Loading…

Następne Przeloty (najbliższe 24 godziny)

TLE

ŚwieżeSource: Space-Track

Epoka: Sep 14, 2026, 14:37 UTC

1 21166U 91009AD  26257.60964978  .00000022  00000-0  34800-3 0  9998
2 21166  74.0611 125.1311 0121912 164.0782 224.6380 12.19245219581235

Śledź SL-8 DEB w czasie rzeczywistym z AllMySat

Download on the App Store